SCP
1 0 0 0 0 0 0 0 0 0 0 0 0 0 0 0 0 0 0 0 0 0 0 0 0 0 1 0 0 0 0 0 0 1 1 1 1 1 1 1 1 1 1 2 2 2 1 1 1
0 0 0 0 0 0 0 0 0 0 0 0 0 0 0 0 0 0 0 0 0 0 0 0 0 0 1 0 0 0 0 0 0 1 1 1 1 1 1 1 1 1 1 1 2 2 2 1 1
0 0 0 0 0 0 0 0 0 0 0 0 0 0 0 0 0 0 0 0 0 0 0 0 0 0 0 0 0 0 0 0 0 0 0 0 0 0 0 1 1 1 1 1 1 2 2 2 1
0 0 0 0 0 0 0 0 0 0 0 0 0 0 0 0 0 0 0 0 0 0 0 0 0 0 0 0 0 0 0 0 0 0 0 0 0 0 0 0 0 1 1 1 1 1 2 1 1
0 0 0 0 0 0 0 0 0 0 0 0 0 0 0 0 0 0 0 0 0 0 0 0 0 0 0 0 0 1 1 0 0 0 0 0 0 0 0 0 0 0 0 1 1 1 1 1 1
0 0 0 0 0 0 0 0 0 0 0 0 0 0 0 0 0 0 0 0 0 0 0 0 0 0 0 0 0 0 0 0 0 0 0 0 0 0 0 0 0 1 1 0 0 1 1 1 1
0 0 0 0 0 0 0 0 0 0 0 0 0 0 0 0 0 0 0 0 0 0 0 0 0 0 0 0 0 0 0 0 0 0 0 0 0 0 0 0 0 1 1 1 0 1 1 1 1
0 0 0 0 0 0 0 0 0 0 0 0 0 0 0 0 0 0 0 0 0 0 0 0 0 0 0 0 0 0 0 0 0 0 0 0 0 0 0 0 0 1 1 1 1 1 1 1 1
0 0 0 0 0 0 0 0 0 0 0 0 0 0 0 0 0 0 0 0 0 0 0 0 0 0 0 0 0 0 0 0 0 0 0 0 0 0 0 0 0 1 1 1 1 1 1 1 1
0 0 0 0 0 0 0 0 0 0 0 0 0 0 0 0 0 0 0 0 0 0 0 0 0 0 0 0 0 0 0 0 0 0 0 0 0 0 0 0 0 0 1 1 1 1 0 0 0
0 0 0 0 0 0 0 0 0 0 0 0 0 0 0 0 0 0 0 0 0 0 0 0 0 0 0 0 0 0 0 0 0 0 0 0 0 0 0 0 0 0 0 0 0 0 0 0 0
0 0 0 0 0 0 0 0 0 0 0 0 0 0 0 0 0 0 0 0 0 0 0 0 0 0 0 0 0 0 0 0 0 0 0 0 0 0 0 0 0 0 0 0 0 0 0 0 0
0 0 0 0 0 0 0 0 0 0 0 0 0 0 0 0 0 0 0 0 0 0 0 0 0 0 0 0 0 0 0 0 0 0 0 0 0 0 0 0 0 0 0 0 0 0 0 0 0
0 0 0 0 0 0 0 0 0 0 0 0 0 0 0 0 0 0 0 0 0 0 0 0 0 0 0 0 0 0 0 0 0 0 0 0 0 0 0 0 0 0 0 0 0 0 0 0 0
0 0 0 0 0 0 0 0 0 0 0 0 0 0 0 0 0 0 0 0 0 0 0 0 0 0 0 0 0 0 0 0 0 0 0 0 0 0 0 0 0 0 0 0 0 0 0 0 0
0 0 0 0 0 0 0 0 0 0 0 0 0 0 0 0 0 0 0 0 0 0 0 0 0 0 0 0 0 0 0 0 0 0 0 0 0 0 0 0 0 0 0 0 0 0 0 0 0
0 0 0 0 0 0 0 0 0 0 0 0 0 0 0 0 0 0 0 0 0 0 0 0 0 0 0 0 0 0 0 0 0 0 0 0 0 0 0 0 0 0 0 0 0 0 0 0 0
0 0 0 0 0 0 0 0 0 0 0 0 0 0 0 0 0 0 0 0 0 0 0 0 0 0 0 0 0 0 0 0 0 0 0 0 0 0 0 0 0 0 0 0 0 0 0 0 0
0 0 0 0 0 0 0 0 0 0 0 0 0 0 0 0 0 0 0 0 0 0 0 0 0 0 0 0 0 0 0 0 0 0 0 0 0 0 0 0 0 0 0 0 0 0 0 0 0
0 0 0 0 0 0 0 0 0 0 0 0 0 0 0 0 0 0 0 0 0 0 0 0 0 0 0 0 0 0 0 0 0 0 0 0 0 0 0 0 0 0 0 0 0 0 0 0 0
0 0 0 0 0 0 0 0 0 0 0 0 0 0 0 0 0 0 0 0 0 0 0 0 0 0 0 0 0 0 0 0 0 0 0 0 0 0 0 0 0 0 0 0 0 0 0 0 0
0 0 0 0 0 0 0 0 0 0 0 0 0 0 0 0 0 0 0 0 0 0 0 0 0 0 0 0 0 0 0 0 0 0 0 0 0 0 0 0 0 0 0 0 0 0 0 0 0
0 0 0 0 0 0 0 0 0 0 0 0 0 0 0 0 0 0 0 0 0 0 0 0 0 0 0 0 0 0 0 0 0 0 0 0 0 0 0 0 0 0 0 0 0 0 0 0 0
0 0 0 0 0 0 0 0 0 0 0 0 0 0 0 0 0 0 0 0 0 0 0 0 0 0 0 0 0 0 0 0 0 0 0 0 0 0 0 0 0 0 0 0 0 0 0 0 0
0 0 0 0 0 0 0 0 0 0 0 0 0 0 0 0 0 0 0 0 0 0 0 0 0 0 0 0 0 0 0 0 0 0 0 0 0 0 0 0 0 0 0 0 0 0 0 0 0
0 0 0 0 0 0 0 0 0 0 0 0 0 0 0 0 0 0 0 0 0 0 0 0 0 0 0 0 0 0 0 0 0 0 0 0 0 0 0 0 0 0 0 0 0 0 0 0 0
0 0 0 0 0 0 0 0 0 0 0 0 0 0 0 0 0 0 0 0 0 0 0 0 0 0 0 0 0 0 0 0 0 0 0 0 0 0 0 0 0 0 0 0 0 0 0 0 0
0 0 0 0 0 0 0 0 0 0 0 0 0 0 0 0 0 0 0 0 0 0 0 0 0 0 0 0 0 0 0 0 0 0 0 0 0 0 0 0 0 0 0 0 0 0 0 0 0
0 0 0 0 0 0 0 0 0 0 0 0 0 0 0 0 0 0 0 0 0 0 0 0 0 0 0 0 0 0 0 0 0 0 0 0 0 0 0 0 0 0 0 0 0 0 0 0 0
0 0 0 0 0 0 0 0 0 0 0 0 0 0 0 0 0 0 0 0 0 0 0 0 0 0 0 0 0 0 0 0 0 0 0 0 0 0 0 0 0 0 0 0 0 0 0 0 0
Wind_Speed
3 3 3 4 7 6 4 3 1 2 3 2 3 5 5 4 2 2 2 1 1 0 1 1 3 4 5 5 6 6 7 7 7 7 8 8 8 8 9 9 9 9 9 8 9 9 8 8 8
1 2 4 6 6 4 2 2 2 2 3 3 4 5 5 4 2 2 1 1 2 1 0 1 3 4 5 5 6 6 7 7 8 8 8 8 8 8 9 9 9 9 9 9 9 9 8 9 9
2 3 5 5 5 3 2 0 2 3 3 2 4 4 3 2 1 1 2 2 2 1 1 1 3 4 5 5 5 6 7 7 7 7 7 7 7 8 8 9 9 9 9 9 9 9 9 9 9
3 5 6 7 5 1 1 1 2 3 4 5 3 4 3 2 0 1 2 3 3 1 1 1 3 4 5 5 5 5 6 7 7 7 7 6 7 7 8 8 8 8 9 9 9 9 8 8 8
4 5 7 5 3 3 1 1 1 3 3 3 3 4 3 4 2 3 3 3 2 1 1 1 3 4 4 5 5 6 6 6 7 7 7 7 7 8 8 8 8 8 8 8 9 9 10 10 9
5 5 6 3 2 2 2 2 3 4 3 3 3 3 2 2 2 1 2 2 1 1 2 2 3 3 4 4 5 5 6 6 6 7 7 7 7 7 7 7 8 8 8 8 9 9 10 10 10
5 5 4 3 2 2 1 2 3 3 3 2 3 3 1 2 0 1 1 2 2 2 2 2 2 3 3 4 4 4 5 5 6 7 7 7 7 7 7 7 8 8 8 9 9 10 11 11 12
5 6 4 2 2 1 1 2 2 3 2 2 3 4 2 2 1 2 3 3 2 2 2 2 2 3 3 3 3 4 5 5 6 7 7 8 8 8 8 7 7 8 9 9 10 10 11 12 12
4 6 3 2 3 1 1 3 2 2 4 3 2 2 2 4 4 4 3 2 2 1 1 1 2 2 2 2 3 4 4 5 5 5 7 7 5 5 5 7 8 8 9 10 10 11 11 12 12
5 4 2 2 4 4 2 3 2 4 4 3 3 3 4 5 4 3 2 0 0 1 1 1 1 1 2 2 3 3 3 3 3 3 3 3 3 3 5 7 9 9 9 10 11 11 10 8 5
4 4 2 2 3 4 3 2 2 5 1 2 3 3 4 4 3 2 1 1 1 1 1 1 0 1 1 1 1 1 2 2 2 3 3 3 3 3 4 3 4 5 7 5 7 7 5 5 4
4 3 3 2 3 3 3 3 3 2 2 2 4 6 5 4 3 3 2 1 0 0 1 0 0 1 1 1 1 1 1 1 1 2 2 2 2 2 2 2 3 3 3 4 4 4 5 5 5
4 2 3 4 5 4 5 3 2 0 1 4 5 5 4 4 2 1 1 1 1 1 0 0 1 1 1 1 1 1 1 1 1 1 2 2 2 2 2 2 3 3 3 3 3 4 5 5 5
3 4 4 4 4 2 4 2 2 1 3 5 4 3 2 2 2 1 1 1 1 1 1 1 2 1 2 1 1 1 1 1 2 2 2 2 2 2 2 2 3 3 3 3 3 4 4 4 4
4 5 4 3 2 1 4 4 1 1 5 5 3 2 1 0 1 2 2 2 2 1 1 1 2 2 2 2 2 1 1 2 2 1 2 2 2 3 3 2 2 2 2 3 4 4 4 4 4
4 4 2 2 1 2 4 1 3 1 5 3 2 1 1 0 1 1 1 2 2 2 2 1 2 3 2 2 2 2 2 2 2 1 2 2 2 3 3 2 2 2 2 3 3 3 4 4 4
4 2 0 2 1 2 3 2 3 1 4 3 1 1 1 1 1 1 1 2 2 3 2 2 2 2 2 2 2 2 2 2 2 2 2 2 2 3 3 2 2 3 3 2 3 3 3 3 3
2 1 1 1 0 4 3 1 3 0 3 3 2 1 1 2 3 2 1 2 2 2 3 2 2 2 3 3 3 2 3 2 2 2 1 1 2 2 3 2 3 3 3 3 3 4 3 3 2
3 2 1 1 1 3 2 1 3 1 1 2 2 2 2 3 2 1 1 2 2 2 2 2 2 2 2 2 1 1 1 1 2 2 1 1 2 2 3 2 3 3 3 3 3 3 3 2 2
3 2 1 1 1 3 1 2 3 2 3 4 4 3 3 2 0 1 1 2 2 2 2 2 2 2 1 1 1 1 1 1 1 1 2 2 1 1 2 3 2 3 3 3 3 3 2 1 1
1 3 3 2 2 3 2 4 3 2 1 1 2 3 3 4 4 3 2 2 2 2 2 2 2 2 1 1 2 2 2 2 2 2 2 2 1 1 2 2 3 3 3 3 3 3 3 2 1
2 2 3 3 3 2 1 3 5 2 2 2 2 2 3 3 3 3 3 2 2 2 2 2 2 2 1 2 2 2 1 0 1 1 1 2 1 1 1 2 2 2 2 3 3 3 2 3 1
2 2 3 2 3 1 1 1 7 2 3 5 4 3 3 3 4 4 4 4 3 2 2 2 2 2 1 1 2 2 1 0 0 1 1 2 2 2 1 1 2 2 2 2 2 2 2 2 2
3 5 5 5 4 1 2 2 6 3 5 4 4 4 4 3 3 3 3 3 2 2 2 2 2 1 1 2 2 2 2 1 1 1 1 1 1 2 2 1 1 1 1 2 2 2 2 2 2
4 5 4 4 3 4 2 2 7 6 4 4 4 5 4 3 3 3 4 4 3 3 2 2 3 1 1 1 1 1 1 2 1 1 1 0 1 1 1 0 1 1 1 2 2 2 2 2 2
2 6 5 3 3 4 2 4 7 4 3 2 2 3 3 3 3 3 4 4 4 4 3 3 3 2 1 1 1 1 1 1 1 1 1 1 1 1 1 0 1 1 1 2 2 1 1 1 2
4 2 4 5 1 2 4 5 7 1 2 1 2 3 3 4 4 4 4 4 4 4 4 3 3 2 2 1 1 0 1 1 1 1 1 1 1 1 0 1 1 1 1 2 2 1 1 1 1
3 6 4 4 2 2 5 4 4 4 3 1 2 3 4 4 3 3 3 3 3 3 3 3 3 3 2 2 1 1 1 2 1 1 1 1 1 0 0 0 1 1 1 2 2 1 1 2 1
2 3 4 3 4 4 2 7 5 6 5 4 4 4 5 5 5 4 4 3 3 2 2 3 3 2 2 2 1 1 1 1 1 1 1 1 1 1 1 1 1 1 1 1 2 1 2 2 1
3 4 6 4 3 3 3 8 5 4 4 4 4 3 4 5 4 4 4 3 2 2 2 2 2 2 2 2 2 2 1 1 1 1 2 1 1 1 1 1 1 1 1 2 2 2 2 2 2
Wind_Direction
9 73 76 58 55 52 48 358 15 44 59 36 52 71 82 75 87 124 262 244 179 240 315 34 87 85 78 73 69 69 70 68 69 71 71 71 71 76 80 85 85 83 83 83 84 85 84 83 82
58 84 57 58 74 67 22 352 43 55 137 134 66 67 70 61 75 110 281 213 151 161 360 44 87 83 80 77 73 73 69 67 68 69 69 69 68 75 80 81 82 79 78 78 80 81 81 81 82
93 59 73 65 74 111 117 53 96 70 80 75 63 52 66 62 71 149 216 160 116 87 41 37 81 84 82 79 74 74 70 70 68 67 70 71 72 76 78 81 81 79 76 76 79 78 78 78 79
75 46 54 65 68 43 130 152 138 103 63 48 78 60 41 9 34 174 142 119 103 62 30 57 88 88 84 80 77 75 71 69 65 65 67 71 74 80 81 81 81 81 79 76 75 76 77 77 78
60 69 61 56 44 20 42 97 79 80 62 49 71 76 17 347 36 109 120 118 118 75 20 58 89 89 88 80 77 77 71 66 63 66 68 72 76 77 79 80 81 80 78 77 74 74 76 75 76
57 65 78 77 50 26 38 65 85 78 81 81 84 82 2 345 65 108 115 113 105 80 36 40 70 76 78 78 76 77 73 67 64 63 66 69 72 75 75 77 77 76 77 78 75 73 73 71 72
90 81 94 108 86 50 77 80 95 104 91 94 118 95 6 329 265 108 80 81 68 60 51 25 18 32 49 60 65 69 66 66 64 60 58 61 63 68 71 73 75 77 75 74 72 73 73 71 71
109 93 80 89 107 61 50 84 90 104 97 94 101 124 182 228 133 87 61 50 45 40 36 16 15 22 20 16 37 50 54 57 57 57 55 54 52 56 60 61 67 75 75 72 73 75 76 73 71
80 76 98 157 150 139 96 95 63 58 81 60 56 114 161 135 109 85 55 32 18 11 3 3 8 12 12 357 16 33 39 42 42 47 50 48 37 37 45 54 61 68 71 72 74 75 73 70 65
74 96 157 189 161 143 114 102 112 78 62 50 46 50 88 105 113 112 99 68 290 287 295 297 339 358 10 6 23 20 24 29 39 45 43 41 40 40 50 45 56 65 69 71 72 72 68 65 54
84 122 127 81 121 124 112 89 89 111 95 192 168 145 112 109 114 122 138 206 237 251 284 269 280 356 18 10 22 25 26 34 41 51 52 49 44 41 44 40 41 47 58 57 61 61 55 57 58
84 75 113 118 107 106 114 108 88 114 207 193 160 144 130 130 144 166 186 205 194 87 276 306 96 58 33 32 31 40 41 41 40 46 67 72 59 49 50 50 44 47 52 62 59 63 61 59 58
77 76 71 90 89 91 91 90 109 19 46 99 108 114 131 146 173 188 168 170 135 126 104 101 95 100 91 70 37 55 50 56 57 60 67 90 87 73 66 56 55 54 60 69 68 67 66 60 53
100 86 74 71 76 76 94 66 74 308 101 100 115 133 153 167 179 148 131 142 146 133 115 88 100 111 102 91 86 62 53 58 63 61 74 101 103 101 90 76 65 57 61 71 75 74 72 64 62
88 77 49 37 73 94 91 28 344 223 119 116 132 146 148 201 177 183 188 174 168 152 115 99 111 95 95 91 86 78 61 57 62 61 63 87 104 110 107 95 78 68 70 79 78 73 70 68 63
62 62 43 319 93 107 104 309 305 137 124 137 148 148 155 243 231 217 188 160 152 135 121 114 109 105 100 81 72 68 65 65 56 60 58 70 96 110 108 104 91 85 83 83 84 75 72 63 59
37 73 250 319 25 107 111 244 310 96 129 145 164 175 191 261 288 238 175 157 155 149 138 115 96 98 99 86 69 62 61 54 43 52 62 75 96 109 112 111 105 98 90 83 93 78 85 79 68
201 190 222 261 317 107 118 257 310 50 147 170 185 195 207 225 248 231 170 138 136 127 118 115 99 88 86 72 60 49 45 33 27 34 49 76 94 110 117 113 115 111 101 86 87 89 74 78 75
154 151 178 255 191 118 157 248 279 261 156 196 207 208 219 241 273 102 112 104 105 99 108 120 122 105 95 83 76 66 35 8 10 17 47 68 86 109 120 123 121 122 118 122 120 107 90 70 77
134 132 161 336 52 131 143 288 274 222 212 207 206 212 219 223 183 122 127 114 133 141 138 142 145 138 134 124 129 124 111 33 359 358 35 53 79 115 133 136 137 134 124 123 125 122 110 79 62
146 172 192 186 31 44 40 333 310 283 235 216 215 214 212 198 191 182 165 166 150 164 171 171 161 147 126 107 86 63 46 27 17 11 9 6 39 90 113 140 144 146 148 156 157 149 139 139 59
234 222 165 134 92 326 46 301 292 284 283 255 242 227 226 213 191 186 178 175 186 198 171 148 134 125 113 121 117 115 118 137 268 293 324 354 19 69 111 143 145 148 152 162 174 163 150 144 149
196 109 109 110 117 39 7 227 290 325 278 263 246 230 224 212 194 189 185 182 180 163 150 138 125 109 94 105 126 123 102 139 334 6 20 8 2 24 54 135 137 143 151 164 165 157 161 157 161
117 72 56 48 67 347 255 186 284 256 239 261 245 224 216 208 197 180 167 151 142 132 132 129 126 116 102 106 110 131 134 121 80 31 22 5 355 2 18 92 127 144 152 163 169 164 163 165 158
82 85 35 4 12 266 264 200 254 258 246 230 227 218 206 194 180 162 157 162 166 163 164 151 148 155 138 125 131 162 164 158 171 194 213 281 343 333 330 55 140 156 171 161 148 146 154 156 159
146 135 153 198 232 282 315 245 259 271 288 249 206 183 168 174 174 170 174 176 179 181 176 169 170 179 175 166 197 185 152 163 195 197 203 215 231 247 259 168 163 171 162 147 136 135 153 140 156
132 149 159 134 164 294 289 292 301 327 5 43 129 145 177 182 180 179 177 178 183 187 188 184 178 190 197 195 195 186 180 191 210 214 212 226 249 249 222 174 182 170 152 145 138 143 157 132 153
128 142 105 119 150 272 297 285 265 285 283 266 194 193 200 188 181 179 181 188 193 194 189 178 178 193 205 200 206 208 216 222 209 179 203 225 241 222 148 126 148 141 135 140 138 140 136 122 148
88 93 103 110 150 160 271 277 234 232 238 230 221 209 196 189 188 187 189 196 184 168 172 181 185 186 193 200 216 220 232 232 207 192 219 216 210 184 174 168 148 134 127 133 137 148 146 144 147
172 166 147 153 210 173 190 268 275 245 239 219 222 219 201 189 186 183 180 173 167 174 184 194 199 203 210 202 201 217 227 216 214 221 229 216 197 192 187 162 144 144 136 140 151 162 161 160 165